Location: Chapel Hill
(35.9134°N, 79.0560°W)
Time: 06:42:52
(UTC-05:00)

Envisat - Visible Passes

Search period start: 06 December 2021 00:00
Search period end: 16 December 2021 00:00
Orbit: 764 x 766 km, 98.2° (Epoch: 05 December)

Date Brightness Start Highest point End Pass type
(mag) Time Alt. Az. Time Alt. Az. Time Alt. Az.
06 Dec 5.0 04:23:49 10° NE 04:28:01 26° E 04:32:12 10° SSE visible
06 Dec 3.6 06:02:32 10° N 06:06:59 31° WNW 06:11:25 10° SW visible
07 Dec 6.1 03:50:06 10° E 03:50:50 10° E 03:51:34 10° E visible
07 Dec 2.8 05:25:14 10° N 05:30:19 74° WNW 05:35:21 10° SSW visible
08 Dec 3.9 04:48:33 10° NNE 04:53:27 47° E 04:58:18 10° S visible
08 Dec 4.3 06:28:39 10° NNW 06:32:03 18° WNW 06:35:26 10° WSW visible
08 Dec 5.9 17:40:55 10° SW 17:44:13 17° W 17:47:32 10° NW visible
09 Dec 5.4 04:12:43 10° NE 04:16:23 20° E 04:20:02 10° SE visible
09 Dec 3.3 05:50:47 10° N 05:55:30 40° WNW 06:00:13 10° SW visible
10 Dec 2.9 05:13:40 10° NNE 05:18:46 86° ESE 05:23:50 10° SSW visible
11 Dec 4.4 04:37:11 10° NNE 04:41:51 36° E 04:46:28 10° SSE visible
11 Dec 4.0 06:16:40 10° NNW 06:20:37 23° WNW 06:24:32 10° WSW visible
11 Dec 5.8 17:28:38 10° SW 17:32:34 23° W 17:36:31 10° NW visible
12 Dec 5.7 04:01:49 10° ENE 04:04:44 15° E 04:07:38 10° SE visible
12 Dec 3.0 05:39:04 10° N 05:44:00 52° WNW 05:48:55 10° SSW visible
13 Dec 3.3 05:02:09 10° NNE 05:07:12 66° E 05:12:14 10° S visible
13 Dec 4.6 06:43:18 10° NW 06:45:36 13° WNW 06:47:55 10° W visible
13 Dec 6.2 17:56:11 10° WSW 17:58:06 12° W 18:00:02 10° WNW visible
14 Dec 4.9 04:25:54 10° NE 04:30:14 28° E 04:34:31 10° SSE visible
14 Dec 3.7 06:04:48 10° N 06:09:09 29° WNW 06:13:29 10° SW visible
15 Dec 6.0 03:51:28 10° ENE 03:53:03 11° E 03:54:38 10° ESE visible
15 Dec 2.9 05:27:26 10° N 05:32:29 68° WNW 05:37:31 10° SSW visible
